Monroe, WI

8:28 PM CST on November 14, 2019 (GMT -0600)
Monroe Municipal

Weather History for KEFT - October, 2019

Change the Weather History Date:

Wednesday, October 16, 2019

  Actual Average Record
Temperature  
Mean Temperature 46 °F -  
Max Temperature 52 °F 0 °F 80 °F (1999)
Min Temperature 40 °F - 30 °F (2002)
Degree Days  
Heating Degree Days 19    
Moisture  
Dew Point 33 °F    
Average Humidity 63    
Maximum Humidity 77    
Minimum Humidity 46    
Precipitation  
Precipitation 0.00 in - - ()
Sea Level Pressure  
Sea Level Pressure 29.96 in    
Wind  
Wind Speed 14 mph (NW)    
Max Wind Speed 21 mph    
Max Gust Speed 31 mph    
Visibility 10 miles    
Events      
Averages and records for this station are not official NWS values.
T = Trace of Precipitation, MM = Missing Value Source: NWS Daily Summary

Daily Weather History Graph

Daily Weather History Graph

Search for Another Location

Airport or City:

Astronomy

Oct. 16, 2019 Rise Set
Actual Time 7:12 AM CDT 6:14 PM CDT
Civil Twilight 6:43 AM CDT 6:43 PM CDT
Nautical Twilight 6:11 AM CDT 7:15 PM CDT
Astronomical Twilight 5:38 AM CDT 7:48 PM CDT
Moon 8:05 PM CDT (10/16) 9:45 AM CDT (10/16)
Length of Visible Light 11h 59m
Length of Day
11h 02m
Waning Gibbous, 92% of the Moon is Illuminated
Oct 16
Waning Gibbous
Oct 21
Last Quarter
Oct 27
New
Nov 4
First Quarter
Nov 12
Full

Hourly Weather History & Observations

Time (CDT) Temp. Windchill Dew Point Humidity Pressure Visibility Wind Dir Wind Speed Gust Speed Precip Events Conditions
12:15 AM 44.6 °F 37.4 °F 34.3 °F 67% 29.84 in 10.0 mi WNW 16.1 mph 26.5 mph N/A   Overcast
12:35 AM 44.8 °F 36.9 °F 34.2 °F 66% 29.84 in 10.0 mi WNW 19.6 mph 27.6 mph N/A   Overcast
12:55 AM 44.6 °F 36.9 °F 34.0 °F 66% 29.84 in 10.0 mi NW 18.4 mph 27.6 mph N/A   Overcast
1:15 AM 44.6 °F 36.4 °F 34.2 °F 67% 29.85 in 10.0 mi WNW 20.7 mph 29.9 mph N/A   Overcast
1:35 AM 44.6 °F 36.6 °F 34.2 °F 67% 29.85 in 10.0 mi NW 19.6 mph 31.1 mph N/A   Overcast
1:55 AM 44.2 °F 36.7 °F 34.2 °F 68% 29.85 in 10.0 mi NW 17.3 mph 28.8 mph N/A   Overcast
2:15 AM 44.2 °F 36.7 °F 34.2 °F 68% 29.86 in 10.0 mi NW 17.3 mph 25.3 mph N/A   Overcast
2:35 AM 44.2 °F 37.3 °F 34.3 °F 68% 29.86 in 10.0 mi NW 15.0 mph 28.8 mph N/A   Overcast
2:55 AM 44.1 °F 36.5 °F 34.7 °F 70% 29.86 in 10.0 mi NW 17.3 mph 26.5 mph N/A   Overcast
3:35 AM 43.9 °F 37.5 °F 34.7 °F 70% 29.87 in 10.0 mi NW 12.7 mph 28.8 mph N/A   Overcast
3:55 AM 43.7 °F 36.3 °F 34.9 °F 71% 29.87 in 10.0 mi NW 16.1 mph 21.9 mph N/A   Overcast
4:15 AM 43.7 °F 36.9 °F 34.9 °F 71% 29.88 in 10.0 mi NW 13.8 mph 24.2 mph N/A   Overcast
4:35 AM 43.7 °F 37.3 °F 35.1 °F 72% 29.89 in 10.0 mi NW 12.7 mph 24.2 mph N/A   Overcast
4:55 AM 43.7 °F 35.4 °F 35.1 °F 72% 29.89 in 10.0 mi NW 19.6 mph 27.6 mph N/A   Overcast
5:35 AM 43.7 °F 36.9 °F 34.5 °F 70% 29.90 in 10.0 mi NW 13.8 mph 24.2 mph N/A   Overcast
5:55 AM 43.7 °F 37.3 °F 34.5 °F 70% 29.90 in 10.0 mi NNW 12.7 mph 25.3 mph N/A   Overcast
6:15 AM 43.7 °F 36.9 °F 34.5 °F 70% 29.90 in 10.0 mi NNW 13.8 mph 21.9 mph N/A   Overcast
6:35 AM 43.3 °F 35.8 °F 34.3 °F 71% 29.91 in 10.0 mi NNW 16.1 mph 20.7 mph N/A   Overcast
6:55 AM 43.5 °F 37.5 °F 34.0 °F 69% 29.92 in 10.0 mi NNW 11.5 mph 24.2 mph N/A   Overcast
7:15 AM 43.3 °F 35.2 °F 33.6 °F 69% 29.93 in 10.0 mi NNW 18.4 mph 23.0 mph N/A   Overcast
7:35 AM 43.3 °F 35.2 °F 33.1 °F 67% 29.93 in 10.0 mi NNW 18.4 mph 26.5 mph N/A   Overcast
7:55 AM 43.5 °F 36.4 °F 32.9 °F 66% 29.94 in 10.0 mi NNW 15.0 mph 31.1 mph N/A   Overcast
8:15 AM 43.7 °F 37.7 °F 33.3 °F 67% 29.94 in 10.0 mi NNW 11.5 mph 24.2 mph N/A   Overcast
8:35 AM 43.7 °F 36.9 °F 33.4 °F 67% 29.95 in 10.0 mi NNW 13.8 mph 20.7 mph N/A   Overcast
9:15 AM 44.2 °F 37.6 °F 33.3 °F 65% 29.96 in 10.0 mi NNW 13.8 mph 21.9 mph N/A   Overcast
9:35 AM 44.4 °F 37.9 °F 33.3 °F 65% 29.96 in 10.0 mi NNW 13.8 mph 26.5 mph N/A   Overcast
9:55 AM 44.4 °F 39.0 °F 33.1 °F 64% 29.97 in 10.0 mi NNW 10.4 mph 27.6 mph N/A   Overcast
10:15 AM 44.2 °F 38.0 °F 33.4 °F 66% 29.98 in 10.0 mi NNW 12.7 mph 24.2 mph N/A   Overcast
10:35 AM 45.0 °F 39.3 °F 32.9 °F 63% 29.98 in 10.0 mi North 11.5 mph 28.8 mph N/A   Mostly Cloudy
10:55 AM 46.8 °F - 33.4 °F 60% 29.99 in 10.0 mi NW 20.7 mph 24.2 mph N/A   Mostly Cloudy
11:35 AM 48.6 °F - 33.1 °F 55% 29.99 in 10.0 mi NW 15.0 mph 23.0 mph N/A   Scattered Clouds
12:15 PM 48.2 °F - 32.9 °F 55% 29.99 in 10.0 mi NNW 16.1 mph 25.3 mph N/A   Overcast
12:35 PM 48.7 °F - 32.9 °F 54% 29.99 in 10.0 mi NNW 11.5 mph 20.7 mph N/A   Overcast
12:55 PM 49.1 °F - 33.1 °F 54% 29.99 in 10.0 mi NW 12.7 mph 21.9 mph N/A   Overcast
1:15 PM 49.1 °F - 33.1 °F 54% 29.99 in 10.0 mi NNW 11.5 mph 19.6 mph N/A   Overcast
1:35 PM 49.6 °F - 33.4 °F 54% 29.99 in 10.0 mi NW 9.2 mph 20.7 mph N/A   Overcast
1:55 PM 50.2 °F - 32.7 °F 51% 29.99 in 10.0 mi NW 10.4 mph 23.0 mph N/A   Mostly Cloudy
2:15 PM 50.9 °F - 32.5 °F 49% 29.99 in 10.0 mi NW 16.1 mph 24.2 mph N/A   Mostly Cloudy
2:35 PM 51.4 °F - 32.5 °F 49% 29.98 in 10.0 mi NW 12.7 mph 19.6 mph N/A   Mostly Cloudy
2:55 PM 51.3 °F - 33.1 °F 50% 29.98 in 10.0 mi NW 15.0 mph 21.9 mph N/A   Overcast
3:15 PM 51.1 °F - 32.2 °F 48% 29.98 in 10.0 mi NW 12.7 mph 21.9 mph N/A   Mostly Cloudy
3:35 PM 50.9 °F - 32.4 °F 49% 29.98 in 10.0 mi NW 9.2 mph 17.3 mph N/A   Mostly Cloudy
3:55 PM 52.9 °F - 32.4 °F 46% 29.99 in 10.0 mi NNW 15.0 mph 19.6 mph N/A   Mostly Cloudy
4:15 PM 51.4 °F - 32.2 °F 48% 29.99 in 10.0 mi NNW 10.4 mph 18.4 mph N/A   Mostly Cloudy
4:35 PM 52.3 °F - 32.2 °F 46% 29.99 in 10.0 mi NW 10.4 mph - N/A   Scattered Clouds
4:55 PM 51.3 °F - 32.2 °F 48% 29.98 in 10.0 mi WNW 9.2 mph - N/A   Mostly Cloudy
5:15 PM 51.6 °F - 31.6 °F 46% 29.99 in 10.0 mi NW 11.5 mph 18.4 mph N/A   Mostly Cloudy
5:35 PM 50.7 °F - 32.0 °F 49% 29.99 in 10.0 mi NW 10.4 mph 18.4 mph N/A   Scattered Clouds
5:55 PM 49.1 °F - 32.7 °F 53% 29.99 in 10.0 mi NW 9.2 mph - N/A   Scattered Clouds
6:15 PM 47.7 °F - 33.1 °F 57% 30.00 in 10.0 mi NW 10.4 mph - N/A   Clear
6:35 PM 46.4 °F 41.5 °F 32.9 °F 59% 30.00 in 10.0 mi WNW 10.4 mph - N/A   Clear
6:55 PM 45.7 °F 40.6 °F 33.3 °F 62% 30.00 in 10.0 mi WNW 10.4 mph - N/A   Clear
7:15 PM 45.0 °F 39.3 °F 32.9 °F 63% 30.01 in 10.0 mi WNW 11.5 mph - N/A   Clear
7:35 PM 44.1 °F 39.5 °F 33.1 °F 65% 30.02 in 10.0 mi WNW 8.1 mph - N/A   Clear
7:55 PM 43.3 °F 38.6 °F 33.1 °F 67% 30.02 in 10.0 mi WNW 8.1 mph - N/A   Clear
8:15 PM 42.8 °F 38.6 °F 33.1 °F 69% 30.02 in 10.0 mi WNW 6.9 mph - N/A   Clear
8:35 PM 42.1 °F 37.7 °F 32.9 °F 70% 30.01 in 10.0 mi NW 6.9 mph - N/A   Clear
8:55 PM 41.9 °F 37.5 °F 32.9 °F 70% 30.02 in 10.0 mi WNW 6.9 mph - N/A   Clear
9:15 PM 41.2 °F 36.0 °F 32.9 °F 72% 30.02 in 10.0 mi WNW 8.1 mph - N/A   Clear
9:35 PM 41.4 °F 35.7 °F 32.9 °F 72% 30.03 in 10.0 mi WNW 9.2 mph - N/A   Clear
10:15 PM 41.0 °F 35.8 °F 33.1 °F 73% 30.04 in 10.0 mi WNW 8.1 mph - N/A   Clear
10:35 PM 41.0 °F 35.8 °F 33.1 °F 73% 30.04 in 10.0 mi WNW 8.1 mph - N/A   Clear
10:55 PM 40.6 °F 36.0 °F 33.3 °F 75% 30.04 in 10.0 mi WNW 6.9 mph - N/A   Clear
11:15 PM 40.3 °F 34.9 °F 33.4 °F 77% 30.04 in 10.0 mi WNW 8.1 mph - N/A   Clear
11:35 PM 40.5 °F 35.1 °F 33.8 °F 77% 30.04 in 10.0 mi WNW 8.1 mph - N/A   Clear
11:55 PM 40.5 °F 35.1 °F 33.8 °F 77% 30.04 in 10.0 mi WNW 8.1 mph - N/A   Clear